When you browse on this site, cookies collect data to enhance your experience and personalize the content and advertising you see.
Visit our Privacy Policy to learn more. By continuing to use the site, you agree to this use of cookies and data.

Hourly Weather Novyy Spor

Today, 26 September, Saturday

Time Temperature Precipitation Wind Pressure Humidity
00:00 +15°C° 0 mm 4 mps 743 mmHg 70%
01:00 +15°C° 0 mm 4 mps 743 mmHg 68%
02:00 +15°C° 0 mm 4 mps 743 mmHg 64%
03:00 +14°C° 0 mm 4 mps 743 mmHg 66%
04:00 +14°C° 0 mm 4 mps 743 mmHg 67%
05:00 +13°C° 0 mm 4 mps 743 mmHg 69%
06:00 +14°C° 0 mm 4 mps 743 mmHg 68%
07:00 +15°C° 0 mm 5 mps 743 mmHg 66%
08:00 +15°C° 0 mm 5 mps 743 mmHg 65%
09:00 +17°C° 0 mm 5 mps 743 mmHg 63%
10:00 +20°C° 0 mm 6 mps 743 mmHg 61%
11:00 +21°C° 0 mm 6 mps 743 mmHg 58%
12:00 +22°C° 0 mm 6 mps 743 mmHg 55%
13:00 +23°C° 0 mm 7 mps 743 mmHg 52%
14:00 +24°C° 0 mm 7 mps 743 mmHg 49%
15:00 +23°C° 0 mm 6 mps 743 mmHg 51%
16:00 +22°C° 0 mm 6 mps 743 mmHg 54%
17:00 +21°C° 0 mm 5 mps 743 mmHg 56%
18:00 +20°C° 0 mm 5 mps 743 mmHg 57%
19:00 +20°C° 0 mm 6 mps 743 mmHg 58%
20:00 +19°C° 0 mm 6 mps 743 mmHg 59%
21:00 +19°C° 0 mm 6 mps 743 mmHg 58%
22:00 +19°C° 0 mm 6 mps 743 mmHg 57%
23:00 +17°C° 0 mm 6 mps 743 mmHg 56%

Tomorrow, 27 September, Sunday

Time Temperature Precipitation Wind Pressure Humidity
00:00 +17°C° 0 mm 6 mps 743 mmHg 53%
01:00 +16°C° 0 mm 5 mps 743 mmHg 50%
02:00 +16°C° 0 mm 5 mps 743 mmHg 48%
03:00 +16°C° 0 mm 6 mps 743 mmHg 47%
04:00 +15°C° 0 mm 6 mps 743 mmHg 47%
05:00 +15°C° 0 mm 6 mps 743 mmHg 47%
06:00 +15°C° 0 mm 6 mps 743 mmHg 48%
07:00 +16°C° 0 mm 6 mps 743 mmHg 50%
08:00 +16°C° 0 mm 7 mps 744 mmHg 52%
09:00 +17°C° 0 mm 7 mps 744 mmHg 51%
10:00 +18°C° 0 mm 8 mps 743 mmHg 50%
11:00 +20°C° 0 mm 8 mps 743 mmHg 49%
12:00 +20°C° 0 mm 8 mps 743 mmHg 50%
13:00 +20°C° 0 mm 8 mps 743 mmHg 51%
14:00 +20°C° 0 mm 8 mps 743 mmHg 53%
15:00 +18°C° 0.8 mm 7 mps 743 mmHg 60%
16:00 +17°C° 0.8 mm 6 mps 743 mmHg 68%
17:00 +17°C° 0.8 mm 4 mps 744 mmHg 75%
18:00 +15°C° 0.3 mm 5 mps 744 mmHg 80%
19:00 +15°C° 0.3 mm 5 mps 745 mmHg 84%
20:00 +15°C° 0.3 mm 5 mps 745 mmHg 88%
21:00 +14°C° 0 mm 5 mps 746 mmHg 87%
22:00 +13°C° 0 mm 4 mps 746 mmHg 87%
23:00 +12°C° 0 mm 3 mps 747 mmHg 86%

Day after tomorrow, 28 September, Monday

Time Temperature Precipitation Wind Pressure Humidity
00:00 +11°C° 0 mm 3 mps 747 mmHg 88%
01:00 +10°C° 0 mm 3 mps 747 mmHg 89%
02:00 +9°C° 0 mm 2 mps 748 mmHg 91%
03:00 +9°C° 0 mm 2 mps 748 mmHg 91%
04:00 +8°C° 0 mm 2 mps 749 mmHg 92%
05:00 +8°C° 0 mm 2 mps 749 mmHg 92%
06:00 +9°C° 0 mm 2 mps 750 mmHg 89%
07:00 +10°C° 0 mm 2 mps 750 mmHg 87%
08:00 +12°C° 0 mm 2 mps 750 mmHg 84%
09:00 +13°C° 0 mm 2 mps 751 mmHg 77%
10:00 +14°C° 0 mm 3 mps 751 mmHg 71%
11:00 +17°C° 0 mm 3 mps 752 mmHg 64%
12:00 +17°C° 0 mm 3 mps 752 mmHg 61%
13:00 +18°C° 0 mm 3 mps 752 mmHg 58%
14:00 +18°C° 0 mm 3 mps 752 mmHg 56%
15:00 +18°C° 0 mm 3 mps 752 mmHg 60%
16:00 +17°C° 0 mm 2 mps 751 mmHg 64%
17:00 +16°C° 0 mm 2 mps 751 mmHg 68%
18:00 +15°C° 0 mm 2 mps 751 mmHg 70%
19:00 +15°C° 0 mm 2 mps 752 mmHg 72%
20:00 +13°C° 0 mm 3 mps 752 mmHg 73%
21:00 +13°C° 0 mm 3 mps 752 mmHg 74%
22:00 +12°C° 0 mm 3 mps 752 mmHg 74%
23:00 +12°C° 0 mm 3 mps 751 mmHg 74%

29 September, Tuesday

Time Temperature Precipitation Wind Pressure Humidity
00:00 +12°C° 0 mm 3 mps 751 mmHg 74%
01:00 +12°C° 0 mm 3 mps 751 mmHg 74%
02:00 +12°C° 0 mm 3 mps 751 mmHg 74%
03:00 +11°C° 0 mm 3 mps 750 mmHg 75%
04:00 +11°C° 0 mm 3 mps 750 mmHg 75%
05:00 +11°C° 0 mm 3 mps 750 mmHg 76%
06:00 +12°C° 0 mm 3 mps 750 mmHg 77%
07:00 +12°C° 0 mm 4 mps 749 mmHg 78%
08:00 +13°C° 0 mm 4 mps 749 mmHg 80%
09:00 +14°C° 0 mm 4 mps 749 mmHg 76%
10:00 +17°C° 0 mm 4 mps 748 mmHg 72%
11:00 +18°C° 0 mm 4 mps 748 mmHg 67%
12:00 +19°C° 0 mm 4 mps 748 mmHg 64%
13:00 +20°C° 0 mm 4 mps 748 mmHg 60%
14:00 +21°C° 0 mm 5 mps 747 mmHg 57%
15:00 +20°C° 0 mm 4 mps 747 mmHg 61%
16:00 +19°C° 0 mm 4 mps 747 mmHg 64%
17:00 +18°C° 0 mm 3 mps 747 mmHg 68%
18:00 +17°C° 0 mm 3 mps 747 mmHg 70%
19:00 +16°C° 0 mm 3 mps 747 mmHg 72%
20:00 +14°C° 0 mm 3 mps 747 mmHg 74%
21:00 +14°C° 0 mm 3 mps 746 mmHg 75%
22:00 +14°C° 0 mm 3 mps 746 mmHg 77%
23:00 +13°C° 0 mm 3 mps 746 mmHg 78%

30 September, Wednesday

Time Temperature Precipitation Wind Pressure Humidity
00:00 +13°C° 0 mm 4 mps 746 mmHg 76%
01:00 +13°C° 0 mm 4 mps 746 mmHg 75%
02:00 +13°C° 0 mm 4 mps 745 mmHg 73%
03:00 +12°C° 0 mm 4 mps 745 mmHg 72%
04:00 +12°C° 0 mm 4 mps 745 mmHg 72%
05:00 +12°C° 0 mm 5 mps 745 mmHg 71%
06:00 +12°C° 0 mm 5 mps 745 mmHg 69%
07:00 +12°C° 0 mm 5 mps 745 mmHg 67%
08:00 +13°C° 0 mm 5 mps 745 mmHg 64%
09:00 +14°C° 0.1 mm 6 mps 745 mmHg 64%
10:00 +14°C° 0.1 mm 6 mps 745 mmHg 65%
11:00 +15°C° 0.1 mm 6 mps 745 mmHg 65%
12:00 +15°C° 0 mm 6 mps 745 mmHg 63%
13:00 +15°C° 0 mm 6 mps 744 mmHg 62%
14:00 +15°C° 0 mm 6 mps 744 mmHg 60%
15:00 +15°C° 0 mm 5 mps 744 mmHg 61%
16:00 +15°C° 0 mm 5 mps 744 mmHg 61%
17:00 +14°C° 0 mm 5 mps 744 mmHg 61%
18:00 +14°C° 0 mm 5 mps 744 mmHg 60%
19:00 +14°C° 0 mm 4 mps 744 mmHg 59%
20:00 +13°C° 0 mm 4 mps 744 mmHg 58%
21:00 +13°C° 0 mm 4 mps 744 mmHg 57%
22:00 +13°C° 0 mm 5 mps 744 mmHg 55%
23:00 +13°C° 0 mm 5 mps 744 mmHg 53%

1 October, Thursday

Time Temperature Precipitation Wind Pressure Humidity
00:00 +13°C° 0 mm 5 mps 744 mmHg 54%
01:00 +13°C° 0 mm 5 mps 744 mmHg 54%
02:00 +13°C° 0 mm 5 mps 743 mmHg 55%
03:00 +13°C° 0 mm 5 mps 743 mmHg 57%
04:00 +13°C° 0 mm 5 mps 743 mmHg 60%
05:00 +13°C° 0 mm 6 mps 743 mmHg 62%
06:00 +13°C° 0 mm 6 mps 743 mmHg 67%
07:00 +12°C° 0 mm 7 mps 743 mmHg 71%
08:00 +12°C° 0 mm 7 mps 743 mmHg 76%
09:00 +14°C° 0 mm 7 mps 743 mmHg 73%
10:00 +13°C° 0 mm 8 mps 743 mmHg 70%
11:00 +15°C° 0 mm 8 mps 742 mmHg 67%
12:00 +13°C° 0 mm 8 mps 743 mmHg 69%
13:00 +13°C° 0 mm 8 mps 743 mmHg 72%
14:00 +14°C° 0 mm 7 mps 743 mmHg 74%
15:00 +14°C° 0 mm 7 mps 743 mmHg 74%
16:00 +15°C° 0 mm 6 mps 743 mmHg 74%
17:00 +15°C° 0 mm 5 mps 744 mmHg 74%
18:00 +15°C° 0.1 mm 5 mps 744 mmHg 77%
19:00 +14°C° 0.1 mm 5 mps 745 mmHg 80%
20:00 +13°C° 0.1 mm 5 mps 745 mmHg 84%
21:00 +13°C° 0 mm 5 mps 745 mmHg 85%
22:00 +13°C° 0 mm 5 mps 745 mmHg 86%
23:00 +12°C° 0 mm 5 mps 746 mmHg 87%
Show more